Location: Abundant Grace Fellowship
(35.0349°N, 90.0924°W)
Time: 21:26:55
(UTC+00:00)

Cosmos 292 Rocket - Pass Details

Date: 18 January 2026
Orbit: 663 x 681 km, 74.0° (Epoch: 10 February)

Event Time Altitude Azimuth Distance (km) Brightness Sun altitude
Rises 00:33:15 0° 339° (NNW) 3,003 7.2 -16.1°
Reaches altitude 10° 00:35:33 10° 337° (NNW) 2,087 6.4 -16.6°
Maximum altitude 00:40:12 67° 256° (WSW) 718 4.0 -17.5°
Drops below altitude 10° 00:44:50 10° 173° (S) 2,080 6.3 -18.4°
Sets 00:47:08 0° 171° (S) 2,991 7.1 -18.9°
